Regional Weather Roundup
Issued by NWS

Home | Current Version | Previous Version | Text Only | Print | Product List | Glossary Off
Versions: 1 2 3 4 5 6 7 8 9 10 11 12 13 14 15 16 17 18 19 20 21 22 23 24 25 26 27 28 29 30 31 32 33 34 35 36 37 38 39 40 41 42 43 44 45 46 47 48 49 50

000
ASUS43 KDTX 210301
RWRMI
MICHIGAN HOURLY REGIONAL WEATHER ROUNDUP
NATIONAL WEATHER SERVICE DETROIT/PONTIAC MI
1100 PM EDT MON APR 20 2015

NOTE: "FAIR" INDICATES FEW OR NO CLOUDS BELOW 12,000 FEET WITH NO
SIGNIFICANT WEATHER AND/OR OBSTRUCTION TO VISIBILITY.

MIZ047>049-052>055-059>063-066>070-074>076-081>083-210400-
SOUTHEAST LOWER MICHIGAN

CITY           SKY/WX    TMP DP  RH WIND       PRES   REMARKS
ADRIAN         LGT RAIN  46  38  73 W12       29.60R
ALMA           MIX PCPN  42  40  93 W10       29.52S
ANN ARBOR      CLOUDY    45  37  73 W15       29.58R
BAD AXE        CLOUDY    43  37  79 W15G23    29.49R
CARO           CLOUDY    44  38  80 SW12G20   29.50S
DETROIT CITY   CLOUDY    47  36  65 W13G23    29.57R
DETROIT        CLOUDY    47  37  68 SW13      29.59R
FLINT          CLOUDY    45  37  73 W14       29.55R
GROSSE ILE     CLOUDY    46  39  76 W12G20    29.58R
HILLSDALE      CLOUDY    44  37  76 W14       29.59S
HOWELL         CLOUDY    41  39  90 W14G22    29.56R

CITY           SKY/WX    TMP DP  RH WIND       PRES   REMARKS
JACKSON        CLOUDY    43  35  73 W13       29.58R
LAMBERTVILLE   CLOUDY    48  36  61 W9G17     29.60S
LANSING        CLOUDY    42  35  76 W21G26    29.56R
LAPEER         DRIZZLE   44  38  79 W17G23    29.53S
MASON          CLOUDY    42  35  76 W9        29.57R
MONROE         DRIZZLE   46  41  81 W9        29.58S
PONTIAC        LGT RAIN  44  36  73 W20G25    29.54R
PORT HOPE        N/A     45  36  70 W14G23    29.45R
PORT HURON     CLOUDY    46  37  71 W9        29.55R
TRI CITIES     CLOUDY    44  38  79 SW14G21   29.51R
TROY           CLOUDY    46  40  78 W15G23    29.58R
SAGINAW HB     CLOUDY    43  37  81 SW20G25   29.51R
$$
MIZ043>046-050>051-056>058-064>065-071>073-077>080-210400-
SOUTHWEST LOWER MICHIGAN

CITY           SKY/WX    TMP DP  RH WIND       PRES   REMARKS
BATTLE CREEK   CLOUDY    43  35  73 W13       29.59R
BENTON HARBOR  CLOUDY    41  34  76 W15       29.61R
BIG RAPIDS     CLOUDY    39  37  92 W8G16     29.49R FOG     WCI  34
COLDWATER      CLOUDY    44  34  68 W8G21     29.60R
FREMONT        CLOUDY    39  36  87 SW8       29.52R WCI  34
HOLLAND        CLOUDY    43  35  73 SW10      29.57S
GRAND RAPIDS   CLOUDY    41  37  86 W13       29.55R
IONIA          CLOUDY    41  38  90 W14       29.54S
KALAMAZOO      CLOUDY    44  34  67 W10       29.60R
LUDINGTON      CLOUDY    40  37  86 SW9       29.50R WCI  35
MARSHALL       CLOUDY    41  35  77 W13       29.58S
MOUNT PLEASANT LGT RAIN  40  37  87 SW13      29.50R WCI  33
MUSKEGON       CLOUDY    41  33  73 SW10      29.55R
SOUTH HAVEN    CLOUDY    43  34  69 W12G18    29.60R
$$
MIZ016>042-210400-
NORTHERN LOWER MICHIGAN

CITY           SKY/WX    TMP DP  RH WIND       PRES   REMARKS
ALPENA         LGT RAIN  40  34  79 W12G22    29.40R WCI  33
BEAVER ISLAND  RAIN      35  34  95 SW10      29.38R WCI  28
BELLAIRE       MIX PCPN  38  36  92 S3        29.43R
CADILLAC       DRIZZLE   37  35  92 SW12G17   29.44R WCI  29
CHARLEVOIX     LGT RAIN  37  37  99 SW12      29.43S WCI  29
FRANKFORT      CLOUDY    41  33  72 W12G20    29.45R
GAYLORD        LGT RAIN  34  34 100 W9        29.40R WCI  27
GRAYLING       LGT RAIN  37  35  93 SW6       29.43R WCI  32
HARBOR SPRINGS RAIN      35  34  96 W8        29.39R WCI  28
HOUGHTON LAKE  LGT RAIN  39  34  82 W13       29.45R WCI  31
MANISTEE       CLOUDY    39  32  75 W13       29.48R WCI  32
OSCODA         CLOUDY    42  34  73 W16G25    29.43R
PELLSTON       CLOUDY    36  34  92 SW12      29.38R WCI  28
ROGERS CITY    CLOUDY    38  35  87 W15G21    29.39R WCI  30
TRAVERSE CITY  LGT RAIN  39  36  89 SW8       29.42S WCI  33
$$
MIZ007>008-015-210400-
EASTERN UPPER MICHIGAN

CITY           SKY/WX    TMP DP  RH WIND       PRES   REMARKS
KINROSS        CLOUDY    37  36  93 W8        29.32S WCI  31
MACKINAC ISLAN CLOUDY    35  35 100 SW13G22   29.35S FOG     WCI  26
NEWBERRY       CLOUDY    35  33  95 W10       29.32R WCI  27
S. S. MARIE    FLURRIES  36  33  89 W7        29.31R WCI  30
$$
MIZ004>006-011>014-085-210400-
CENTRAL UPPER MICHIGAN

CITY           SKY/WX    TMP DP  RH WIND       PRES   REMARKS
MANISTIQUE     DRIZZLE   36  35  96 SW6       29.35R WCI  31
ESCANABA       MOCLDY    36  30  80 SW7       29.36S WCI  30
MENOMINEE      CLOUDY    39  30  70 SW6       29.40R WCI  35
$$
MIZ001>003-009>011-084-210400-
WESTERN UPPER MICHIGAN

CITY           SKY/WX    TMP DP  RH WIND       PRES   REMARKS
IRON MOUNTAIN  CLOUDY    37  30  75 W9        29.33S WCI  30
HOUGHTON       CLOUDY    33  29  85 W18G28    29.27S WCI  22
COPPER HARBOR    N/A     34  31  88 NW15G25   29.25S WCI  24
IRONWOOD       CLOUDY    34  28  80 W18       29.33S WCI  23
$$

ABBREVIATIONS USED IN REMARKS
   TC - TEMPERATURE IN CELSIUS
  WCI - WIND CHILL INDEX
   HX - HEAT INDEX
  VSB - VISIBILITY



USA.gov is the U.S. government's official web portal to all federal, state and local government web resources and services.